| time (UTC) | temp C | wind direction | speed KPH | gust KPH | rain 1hr cm | rain 24hr cm | rain mn cm | humidity % | barometer mb |
| 20260506044902 | 18 | 239 | 9.7 | 11.3 | 0.00 | 0.43 | 0.43 | 47 | 1012.4 |
| 20260506044400 | 18 | 274 | 12.9 | 14.5 | 0.00 | 0.43 | 0.43 | 47 | 1012.3 |
| 20260506043857 | 18 | 268 | 8.0 | 9.7 | 0.00 | 0.43 | 0.43 | 46 | 1012.4 |
| 20260506043354 | 19 | 269 | 8.0 | 9.7 | 0.00 | 0.43 | 0.43 | 46 | 1012.2 |
| 20260506042852 | 19 | 273 | 11.3 | 14.5 | 0.00 | 0.43 | 0.43 | 46 | 1012.3 |
| 20260506042351 | 19 | 283 | 8.0 | 9.7 | 0.00 | 0.43 | 0.43 | 45 | 1012.3 |
| 20260506041849 | 19 | 270 | 12.9 | 14.5 | 0.00 | 0.43 | 0.43 | 45 | 1012.0 |
| 20260506041346 | 19 | 281 | 11.3 | 12.9 | 0.00 | 0.43 | 0.43 | 45 | 1012.0 |
| 20260506040843 | 19 | 282 | 11.3 | 12.9 | 0.00 | 0.43 | 0.43 | 45 | 1011.6 |
| 20260506040340 | 19 | 243 | 11.3 | 14.5 | 0.00 | 0.43 | 0.43 | 44 | 1011.7 |
| 20260506035836 | 19 | 210 | 1.6 | 1.6 | 0.00 | 0.43 | 0.43 | 43 | 1011.6 |
| 20260506035334 | 19 | 195 | 4.8 | 4.8 | 0.00 | 0.43 | 0.43 | 41 | 1011.4 |
| 20260506034831 | 19 | 232 | 6.4 | 8.0 | 0.00 | 0.43 | 0.43 | 39 | 1011.6 |
| 20260506034328 | 19 | 221 | 4.8 | 4.8 | 0.00 | 0.43 | 0.43 | 38 | 1011.1 |
| 20260506033825 | 19 | 228 | 6.4 | 8.0 | 0.00 | 0.43 | 0.43 | 37 | 1011.4 |
| 20260506033322 | 20 | 199 | 6.4 | 8.0 | 0.00 | 0.43 | 0.43 | 37 | 1011.2 |
| 20260506032819 | 20 | 253 | 4.8 | 8.0 | 0.00 | 0.43 | 0.43 | 37 | 1011.4 |
| 20260506032316 | 20 | 214 | 4.8 | 4.8 | 0.00 | 0.43 | 0.43 | 36 | 1011.0 |
| 20260506031813 | 20 | 226 | 4.8 | 4.8 | 0.00 | 0.43 | 0.43 | 35 | 1011.1 |
| 20260506031310 | 20 | 220 | 4.8 | 4.8 | 0.00 | 0.43 | 0.43 | 35 | 1010.8 |
| 20260506030808 | 20 | 226 | 8.0 | 9.7 | 0.00 | 0.43 | 0.43 | 34 | 1011.0 |
| 20260506030306 | 20 | 261 | 8.0 | 9.7 | 0.00 | 0.43 | 0.43 | 33 | 1011.0 |
| 20260506025802 | 20 | 280 | 9.7 | 11.3 | 0.00 | 0.43 | 0.43 | 33 | 1010.9 |
| 20260506025258 | 20 | 254 | 12.9 | 12.9 | 0.00 | 0.43 | 0.43 | 33 | 1010.6 |
| 20260506024755 | 20 | 232 | 14.5 | 16.1 | 0.00 | 0.43 | 0.43 | 32 | 1010.5 |
| 20260506024252 | 20 | 248 | 9.7 | 11.3 | 0.00 | 0.43 | 0.43 | 32 | 1010.5 |
| 20260506023748 | 20 | 258 | 11.3 | 12.9 | 0.00 | 0.43 | 0.43 | 31 | 1010.3 |
| 20260506023246 | 21 | 270 | 12.9 | 16.1 | 0.00 | 0.43 | 0.43 | 31 | 1010.4 |
| 20260506022742 | 21 | 261 | 11.3 | 11.3 | 0.00 | 0.43 | 0.43 | 31 | 1010.2 |
| 20260506022240 | 21 | 259 | 11.3 | 12.9 | 0.00 | 0.43 | 0.43 | 31 | 1010.3 |
| 20260506021738 | 21 | 235 | 9.7 | 11.3 | 0.00 | 0.43 | 0.43 | 32 | 1010.0 |
| 20260506021235 | 21 | 229 | 9.7 | 11.3 | 0.00 | 0.43 | 0.43 | 33 | 1010.1 |
| 20260506020731 | 21 | 245 | 11.3 | 11.3 | 0.00 | 0.43 | 0.43 | 32 | 1009.8 |
| 20260506020229 | 21 | 281 | 11.3 | 14.5 | 0.00 | 0.43 | 0.43 | 32 | 1010.0 |
| 20260506015727 | 21 | 262 | 11.3 | 14.5 | 0.00 | 0.43 | 0.43 | 31 | 1009.8 |
| 20260506015224 | 21 | 247 | 14.5 | 16.1 | 0.00 | 0.43 | 0.43 | 32 | 1009.8 |
| 20260506014721 | 21 | 244 | 19.3 | 24.1 | 0.00 | 0.43 | 0.43 | 32 | 1009.5 |
| 20260506014217 | 21 | 277 | 16.1 | 24.1 | 0.00 | 0.43 | 0.43 | 32 | 1009.6 |
| 20260506013715 | 21 | 278 | 17.7 | 20.9 | 0.00 | 0.43 | 0.43 | 32 | 1009.7 |
| 20260506013212 | 21 | 257 | 16.1 | 20.9 | 0.00 | 0.43 | 0.43 | 33 | 1009.5 |
| 20260506012708 | 21 | 258 | 14.5 | 17.7 | 0.00 | 0.43 | 0.43 | 33 | 1009.4 |
| 20260506012205 | 22 | 268 | 16.1 | 22.5 | 0.00 | 0.43 | 0.43 | 32 | 1009.4 |
| 20260506011702 | 22 | 270 | 17.7 | 22.5 | 0.00 | 0.43 | 0.43 | 32 | 1009.4 |
| 20260506011158 | 22 | 253 | 14.5 | 16.1 | 0.00 | 0.43 | 0.43 | 31 | 1009.4 |
| 20260506010657 | 22 | 277 | 11.3 | 12.9 | 0.00 | 0.43 | 0.43 | 31 | 1009.4 |
| 20260506010154 | 22 | 251 | 14.5 | 20.9 | 0.00 | 0.43 | 0.43 | 30 | 1009.1 |
| 20260506005651 | 22 | 236 | 14.5 | 16.1 | 0.00 | 0.43 | 0.43 | 30 | 1009.0 |
| 20260506005147 | 22 | 276 | 17.7 | 20.9 | 0.00 | 0.43 | 0.43 | 30 | 1009.1 |
| 20260506004643 | 23 | 256 | 16.1 | 17.7 | 0.00 | 0.43 | 0.43 | 29 | 1009.0 |
| 20260506004141 | 23 | 249 | 4.8 | 8.0 | 0.00 | 0.43 | 0.43 | 29 | 1008.8 |
| 20260506003637 | 23 | 257 | 11.3 | 14.5 | 0.00 | 0.43 | 0.43 | 29 | 1009.0 |
| 20260506003133 | 23 | 247 | 19.3 | 22.5 | 0.00 | 0.43 | 0.43 | 28 | 1008.9 |
| 20260506002629 | 23 | 278 | 14.5 | 20.9 | 0.00 | 0.43 | 0.43 | 28 | 1008.9 |
| 20260506002126 | 23 | 259 | 9.7 | 14.5 | 0.00 | 0.43 | 0.43 | 28 | 1008.6 |
| 20260506001621 | 23 | 249 | 19.3 | 24.1 | 0.00 | 0.43 | 0.43 | 28 | 1008.9 |
| 20260506001119 | 23 | 257 | 14.5 | 17.7 | 0.00 | 0.43 | 0.43 | 28 | 1008.7 |
| 20260506000616 | 23 | 228 | 19.3 | 24.1 | 0.00 | 0.43 | 0.43 | 28 | 1008.6 |
| 20260506000113 | 23 | 196 | 16.1 | 20.9 | 0.00 | 0.43 | 0.43 | 28 | 1008.8 |
| 20260505235612 | 23 | 251 | 14.5 | 16.1 | 0.00 | 0.43 | 0.43 | 28 | 1008.7 |
| 20260505235108 | 23 | 201 | 9.7 | 11.3 | 0.00 | 0.43 | 0.43 | 29 | 1008.4 |
| 20260505234605 | 23 | 156 | 14.5 | 17.7 | 0.00 | 0.43 | 0.43 | 29 | 1008.6 |
| 20260505234102 | 23 | 161 | 9.7 | 12.9 | 0.00 | 0.43 | 0.43 | 29 | 1008.3 |
| 20260505233600 | 23 | 177 | 11.3 | 12.9 | 0.00 | 0.43 | 0.43 | 29 | 1008.5 |
| 20260505233056 | 23 | 195 | 11.3 | 17.7 | 0.00 | 0.43 | 0.43 | 30 | 1008.6 |
| 20260505232555 | 23 | 209 | 17.7 | 22.5 | 0.00 | 0.43 | 0.43 | 29 | 1008.7 |
| 20260505232052 | 23 | 253 | 9.7 | 9.7 | 0.00 | 0.43 | 0.43 | 29 | 1008.5 |
| 20260505231549 | 23 | 200 | 11.3 | 12.9 | 0.00 | 0.43 | 0.43 | 30 | 1008.6 |
| 20260505231048 | 23 | 210 | 11.3 | 12.9 | 0.00 | 0.43 | 0.43 | 29 | 1008.7 |
| 20260505230545 | 23 | 185 | 9.7 | 11.3 | 0.00 | 0.43 | 0.43 | 29 | 1008.6 |
| 20260505230041 | 24 | 292 | 11.3 | 12.9 | 0.00 | 0.43 | 0.43 | 29 | 1008.5 |
| 20260505225537 | 23 | 156 | 9.7 | 14.5 | 0.00 | 0.43 | 0.43 | 29 | 1008.6 |
| 20260505225033 | 23 | 257 | 20.9 | 25.7 | 0.00 | 0.43 | 0.43 | 29 | 1008.7 |
| 20260505224531 | 23 | 222 | 20.9 | 27.4 | 0.00 | 0.43 | 0.43 | 28 | 1008.6 |
| 20260505224028 | 23 | 217 | 11.3 | 14.5 | 0.00 | 0.43 | 0.43 | 28 | 1008.8 |
| 20260505223525 | 24 | 266 | 6.4 | 11.3 | 0.00 | 0.43 | 0.43 | 29 | 1008.8 |
| 20260505223021 | 24 | 238 | 6.4 | 9.7 | 0.00 | 0.43 | 0.43 | 28 | 1009.1 |
| 20260505222517 | 24 | 228 | 4.8 | 8.0 | 0.00 | 0.43 | 0.43 | 29 | 1008.9 |
| 20260505222013 | 24 | 230 | 19.3 | 29.0 | 0.00 | 0.43 | 0.43 | 28 | 1009.0 |
| 20260505221511 | 23 | 229 | 16.1 | 20.9 | 0.00 | 0.43 | 0.43 | 29 | 1008.9 |
| 20260505221008 | 23 | 235 | 11.3 | 12.9 | 0.00 | 0.43 | 0.43 | 29 | 1008.9 |
| 20260505220504 | 23 | 255 | 11.3 | 14.5 | 0.00 | 0.43 | 0.43 | 32 | 1009.0 |
| 20260505220002 | 23 | 270 | 16.1 | 17.7 | 0.00 | 0.43 | 0.43 | 31 | 1009.1 |
| 20260505215500 | 23 | 181 | 14.5 | 17.7 | 0.00 | 0.43 | 0.43 | 32 | 1009.5 |
| 20260505214958 | 22 | 229 | 12.9 | 16.1 | 0.00 | 0.43 | 0.43 | 31 | 1009.5 |
| 20260505214456 | 23 | 242 | 20.9 | 29.0 | 0.00 | 0.43 | 0.43 | 32 | 1009.3 |
| 20260505213952 | 23 | 288 | 17.7 | 22.5 | 0.00 | 0.43 | 0.43 | 32 | 1009.6 |
| 20260505213450 | 23 | 270 | 20.9 | 24.1 | 0.00 | 0.43 | 0.43 | 32 | 1009.8 |
| 20260505212946 | 23 | 163 | 8.0 | 11.3 | 0.00 | 0.43 | 0.43 | 31 | 1009.5 |
| 20260505212443 | 23 | 238 | 17.7 | 24.1 | 0.00 | 0.43 | 0.43 | 31 | 1009.9 |
| 20260505211939 | 23 | 236 | 12.9 | 16.1 | 0.00 | 0.43 | 0.43 | 31 | 1009.6 |
| 20260505211437 | 23 | 194 | 20.9 | 25.7 | 0.00 | 0.43 | 0.43 | 31 | 1009.7 |
| 20260505210933 | 23 | 257 | 14.5 | 17.7 | 0.00 | 0.43 | 0.43 | 31 | 1010.0 |
| 20260505210431 | 23 | 263 | 22.5 | 25.7 | 0.00 | 0.43 | 0.43 | 31 | 1009.9 |
| 20260505205927 | 23 | 233 | 19.3 | 24.1 | 0.00 | 0.43 | 0.43 | 32 | 1009.6 |
| 20260505205426 | 23 | 238 | 14.5 | 20.9 | 0.00 | 0.43 | 0.43 | 33 | 1009.8 |
| 20260505204922 | 23 | 246 | 22.5 | 29.0 | 0.00 | 0.43 | 0.43 | 34 | 1009.7 |
| 20260505204420 | 23 | 242 | 14.5 | 16.1 | 0.00 | 0.43 | 0.43 | 35 | 1009.7 |
| 20260505203917 | 23 | 240 | 24.1 | 29.0 | 0.00 | 0.43 | 0.43 | 35 | 1009.9 |
| 20260505203413 | 22 | 272 | 11.3 | 14.5 | 0.00 | 0.43 | 0.43 | 36 | 1010.0 |
| 20260505202910 | 22 | 218 | 14.5 | 22.5 | 0.00 | 0.43 | 0.43 | 35 | 1009.7 |
| 20260505202406 | 22 | 229 | 19.3 | 22.5 | 0.00 | 0.43 | 0.43 | 35 | 1009.8 |
| 20260505201903 | 23 | 222 | 12.9 | 17.7 | 0.00 | 0.43 | 0.43 | 36 | 1009.8 |
| 20260505201400 | 23 | 165 | 14.5 | 20.9 | 0.00 | 0.43 | 0.43 | 36 | 1010.0 |
| 20260505200858 | 22 | 248 | 8.0 | 12.9 | 0.00 | 0.43 | 0.43 | 38 | 1010.0 |
| 20260505200355 | 22 | 165 | 9.7 | 12.9 | 0.00 | 0.43 | 0.43 | 39 | 1010.2 |
| 20260505195850 | 22 | 232 | 17.7 | 20.9 | 0.00 | 0.43 | 0.43 | 39 | 1010.2 |
| 20260505195348 | 22 | 233 | 17.7 | 20.9 | 0.00 | 0.43 | 0.43 | 39 | 1010.2 |
| 20260505194845 | 22 | 279 | 12.9 | 14.5 | 0.00 | 0.43 | 0.43 | 40 | 1010.3 |
| 20260505194342 | 22 | 224 | 11.3 | 12.9 | 0.00 | 0.43 | 0.43 | 42 | 1010.4 |
| 20260505193837 | 22 | 244 | 14.5 | 16.1 | 0.00 | 0.43 | 0.43 | 43 | 1010.2 |
| 20260505193336 | 21 | 215 | 14.5 | 16.1 | 0.00 | 0.43 | 0.43 | 45 | 1010.4 |
| 20260505192833 | 21 | 229 | 4.8 | 4.8 | 0.00 | 0.43 | 0.43 | 51 | 1010.3 |
| 20260505192331 | 22 | 306 | 6.4 | 8.0 | 0.00 | 0.43 | 0.43 | 48 | 1010.5 |
| 20260505191828 | 21 | 165 | 0.0 | 0.0 | 0.00 | 0.43 | 0.43 | 49 | 1010.5 |
| 20260505191327 | 21 | 238 | 8.0 | 9.7 | 0.00 | 0.43 | 0.43 | 50 | 1010.6 |
| 20260505190823 | 21 | 183 | 1.6 | 3.2 | 0.00 | 0.43 | 0.43 | 49 | 1010.4 |
| 20260505190319 | 21 | 250 | 11.3 | 12.9 | 0.00 | 0.43 | 0.43 | 50 | 1010.5 |
| 20260505185815 | 21 | 287 | 9.7 | 11.3 | 0.00 | 0.43 | 0.43 | 52 | 1010.8 |
| 20260505185311 | 21 | 166 | 6.4 | 8.0 | 0.00 | 0.43 | 0.43 | 50 | 1010.8 |
| 20260505184807 | 21 | 98 | 4.8 | 8.0 | 0.00 | 0.43 | 0.43 | 52 | 1010.8 |
| 20260505184304 | 20 | 202 | 4.8 | 4.8 | 0.00 | 0.43 | 0.43 | 52 | 1010.9 |
| 20260505183801 | 20 | 206 | 3.2 | 3.2 | 0.00 | 0.43 | 0.43 | 53 | 1011.3 |
| 20260505183259 | 20 | 195 | 4.8 | 4.8 | 0.00 | 0.43 | 0.43 | 54 | 1011.3 |
| 20260505182755 | 20 | 248 | 4.8 | 4.8 | 0.00 | 0.43 | 0.43 | 54 | 1011.2 |
| 20260505182252 | 21 | 260 | 3.2 | 3.2 | 0.00 | 0.43 | 0.43 | 51 | 1011.3 |
| 20260505181748 | 20 | 249 | 4.8 | 8.0 | 0.00 | 0.43 | 0.43 | 54 | 1011.4 |
| 20260505181246 | 19 | 251 | 9.7 | 11.3 | 0.00 | 0.43 | 0.43 | 56 | 1011.3 |
| 20260505180742 | 19 | 230 | 6.4 | 11.3 | 0.00 | 0.43 | 0.43 | 57 | 1011.4 |
| 20260505180239 | 19 | 193 | 3.2 | 3.2 | 0.00 | 0.43 | 0.43 | 58 | 1011.3 |
| 20260505175735 | 19 | 215 | 6.4 | 11.3 | 0.00 | 0.43 | 0.43 | 59 | 1011.6 |
| 20260505175232 | 19 | 202 | 3.2 | 3.2 | 0.00 | 0.43 | 0.43 | 58 | 1011.5 |
| 20260505174728 | 19 | 278 | 1.6 | 3.2 | 0.00 | 0.43 | 0.43 | 59 | 1011.4 |
| 20260505174226 | 18 | 255 | 4.8 | 4.8 | 0.00 | 0.43 | 0.43 | 59 | 1011.6 |
| 20260505173721 | 18 | 331 | 6.4 | 9.7 | 0.00 | 0.43 | 0.43 | 60 | 1011.4 |
| 20260505173219 | 19 | 240 | 6.4 | 8.0 | 0.00 | 0.43 | 0.43 | 60 | 1011.6 |
| 20260505172715 | 18 | 168 | 4.8 | 4.8 | 0.00 | 0.43 | 0.43 | 62 | 1011.7 |
| 20260505172212 | 18 | 235 | 3.2 | 3.2 | 0.00 | 0.43 | 0.43 | 60 | 1011.6 |
| 20260505171712 | 18 | 308 | 1.6 | 1.6 | 0.00 | 0.43 | 0.43 | 62 | 1011.7 |
| 20260505171210 | 20 | 282 | 6.4 | 8.0 | 0.00 | 0.43 | 0.43 | 57 | 1011.8 |
| 20260505170706 | 19 | 175 | 4.8 | 8.0 | 0.00 | 0.43 | 0.43 | 59 | 1011.6 |
| 20260505170203 | 19 | 172 | 9.7 | 11.3 | 0.00 | 0.43 | 0.43 | 59 | 1011.6 |
| 20260505165658 | 19 | 111 | 6.4 | 8.0 | 0.00 | 0.43 | 0.43 | 56 | 1011.8 |
| 20260505165154 | 19 | 184 | 4.8 | 4.8 | 0.00 | 0.43 | 0.43 | 61 | 1011.6 |
| 20260505164649 | 18 | 154 | 3.2 | 4.8 | 0.00 | 0.43 | 0.43 | 63 | 1011.6 |
| 20260505164147 | 18 | 143 | 6.4 | 8.0 | 0.00 | 0.43 | 0.43 | 64 | 1011.6 |
| 20260505163645 | 18 | 163 | 1.6 | 1.6 | 0.00 | 0.43 | 0.43 | 64 | 1011.6 |
| 20260505163143 | 17 | 209 | 4.8 | 4.8 | 0.00 | 0.43 | 0.43 | 67 | 1011.8 |
| 20260505162640 | 17 | 201 | 3.2 | 3.2 | 0.00 | 0.43 | 0.43 | 68 | 1011.8 |
| 20260505162138 | 17 | 240 | 0.0 | 1.6 | 0.00 | 0.43 | 0.43 | 69 | 1011.8 |
| 20260505161635 | 17 | 231 | 4.8 | 4.8 | 0.00 | 0.43 | 0.43 | 70 | 1011.7 |
| 20260505161132 | 17 | 196 | 0.0 | 0.0 | 0.00 | 0.43 | 0.43 | 72 | 1011.8 |
| 20260505160630 | 17 | 238 | 4.8 | 4.8 | 0.00 | 0.43 | 0.43 | 73 | 1011.8 |
| 20260505160127 | 17 | 243 | 4.8 | 4.8 | 0.00 | 0.43 | 0.43 | 72 | 1011.8 |
| 20260505153107 | 17 | 196 | 4.8 | 4.8 | 0.00 | 0.41 | 0.41 | 71 | 1011.4 |
| 20260505152603 | 17 | 216 | 3.2 | 3.2 | 0.00 | 0.41 | 0.41 | 72 | 1011.6 |
| 20260505152058 | 17 | 189 | 1.6 | 3.2 | 0.00 | 0.41 | 0.41 | 73 | 1011.6 |
| 20260505151554 | 17 | 201 | 0.0 | 1.6 | 0.00 | 0.41 | 0.41 | 75 | 1011.6 |
| 20260505151052 | 16 | 205 | 0.0 | 0.0 | 0.00 | 0.41 | 0.41 | 75 | 1011.5 |
| 20260505150548 | 16 | 11 | 0.0 | 0.0 | 0.00 | 0.41 | 0.41 | 75 | 1011.5 |
| 20260505140513 | 15 | 171 | 0.0 | 0.0 | 0.00 | 0.41 | 0.41 | 94 | 1011.2 |
| 20260505124926 | 14 | 172 | 0.0 | 0.0 | 0.00 | 0.41 | 0.41 | 97 | 1010.4 |
| 20260505124423 | 14 | 138 | 0.0 | 0.0 | 0.00 | 0.41 | 0.41 | 97 | 1010.3 |
| 20260505123919 | 14 | 121 | 0.0 | 0.0 | 0.00 | 0.41 | 0.41 | 97 | 1010.5 |
| 20260505123416 | 14 | 172 | 0.0 | 0.0 | 0.00 | 0.41 | 0.41 | 97 | 1010.9 |
| 20260505122912 | 14 | 199 | 0.0 | 0.0 | 0.00 | 0.41 | 0.41 | 96 | 1010.6 |
| 20260505122409 | 14 | 192 | 0.0 | 0.0 | 0.18 | 0.41 | 0.41 | 96 | 1010.5 |
| 20260505121906 | 14 | 176 | 0.0 | 0.0 | 0.00 | 0.38 | 0.38 | 96 | 1010.4 |
| 20260505121403 | 14 | 176 | 0.0 | 0.0 | 0.00 | 0.38 | 0.38 | 96 | 1010.4 |
| 20260505120859 | 14 | 176 | 0.0 | 0.0 | 0.00 | 0.38 | 0.38 | 96 | 1010.0 |
| 20260505120355 | 14 | 176 | 0.0 | 0.0 | 0.00 | 0.38 | 0.38 | 96 | 1010.1 |
| 20260505115854 | 14 | 176 | 0.0 | 0.0 | 0.00 | 0.38 | 0.38 | 96 | 1010.1 |
| 20260505115351 | 14 | 172 | 0.0 | 0.0 | 0.00 | 0.38 | 0.38 | 96 | 1010.1 |
| 20260505114849 | 13 | 154 | 0.0 | 0.0 | 0.00 | 0.38 | 0.38 | 96 | 1010.2 |
| 20260505114346 | 14 | 173 | 0.0 | 0.0 | 0.00 | 0.38 | 0.38 | 95 | 1010.2 |
| 20260505113842 | 13 | 176 | 0.0 | 0.0 | 0.00 | 0.38 | 0.38 | 95 | 1010.0 |
| 20260505113339 | 14 | 120 | 0.0 | 0.0 | 0.13 | 0.38 | 0.38 | 95 | 1010.0 |
| 20260505112834 | 14 | 173 | 0.0 | 0.0 | 0.13 | 0.38 | 0.38 | 95 | 1010.6 |
| 20260505112332 | 14 | 169 | 0.0 | 0.0 | 0.00 | 0.36 | 0.36 | 95 | 1010.6 |
| 20260505111827 | 14 | 163 | 1.6 | 1.6 | 0.00 | 0.36 | 0.36 | 95 | 1010.5 |
| 20260505111323 | 14 | 172 | 0.0 | 0.0 | 0.00 | 0.36 | 0.36 | 95 | 1010.5 |
| 20260505110819 | 14 | 153 | 0.0 | 0.0 | 0.00 | 0.36 | 0.36 | 95 | 1010.2 |
| 20260505110317 | 14 | 148 | 0.0 | 1.6 | 0.18 | 0.36 | 0.36 | 95 | 1010.5 |
| 20260505101751 | 14 | 64 | 3.2 | 4.8 | 0.18 | 0.30 | 0.30 | 96 | 1011.1 |
| 20260505101247 | 14 | 62 | 3.2 | 3.2 | 0.18 | 0.30 | 0.30 | 96 | 1011.5 |
| 20260505100743 | 14 | 152 | 0.0 | 1.6 | 0.00 | 0.28 | 0.28 | 96 | 1011.5 |
| 20260505100240 | 14 | 48 | 6.4 | 8.0 | 0.00 | 0.28 | 0.28 | 96 | 1011.6 |
| 20260505095736 | 14 | 142 | 1.6 | 3.2 | 0.00 | 0.28 | 0.28 | 96 | 1011.5 |
| 20260505095234 | 14 | 195 | 1.6 | 4.8 | 0.00 | 0.28 | 0.28 | 96 | 1011.6 |
| 20260505094729 | 14 | 156 | 1.6 | 1.6 | 0.00 | 0.28 | 0.28 | 96 | 1011.8 |
| 20260505094226 | 14 | 138 | 3.2 | 3.2 | 0.13 | 0.28 | 0.28 | 96 | 1011.7 |
| 20260505093722 | 14 | 84 | 3.2 | 4.8 | 0.30 | 0.28 | 0.28 | 95 | 1011.8 |
| 20260505093220 | 14 | 103 | 3.2 | 3.2 | 0.18 | 0.25 | 0.25 | 95 | 1011.3 |
| 20260505092716 | 14 | 143 | 0.0 | 1.6 | 0.13 | 0.23 | 0.23 | 95 | 1012.0 |
| 20260505092215 | 14 | 124 | 3.2 | 4.8 | 0.13 | 0.23 | 0.23 | 95 | 1012.4 |
| 20260505091712 | 14 | 81 | 3.2 | 3.2 | 0.00 | 0.20 | 0.20 | 95 | 1011.9 |
| 20260505091210 | 14 | 100 | 1.6 | 1.6 | 0.18 | 0.20 | 0.20 | 95 | 1012.0 |
| 20260505090707 | 14 | 87 | 4.8 | 8.0 | 0.18 | 0.20 | 0.20 | 95 | 1012.0 |
| 20260505090205 | 14 | 92 | 3.2 | 4.8 | 0.00 | 0.18 | 0.18 | 95 | 1012.0 |
| 20260505085702 | 14 | 101 | 3.2 | 3.2 | 0.00 | 0.18 | 0.18 | 95 | 1012.2 |
| 20260505085200 | 14 | 139 | 3.2 | 3.2 | 0.00 | 0.18 | 0.18 | 95 | 1012.5 |
| 20260505084657 | 14 | 55 | 3.2 | 3.2 | 0.18 | 0.18 | 0.18 | 96 | 1012.3 |
| 20260505084156 | 14 | 148 | 3.2 | 8.0 | 0.18 | 0.18 | 0.18 | 96 | 1012.5 |
| 20260505083653 | 14 | 73 | 1.6 | 3.2 | 0.00 | 0.15 | 0.15 | 96 | 1012.9 |
| 20260505083150 | 14 | 92 | 1.6 | 1.6 | 0.00 | 0.15 | 0.15 | 96 | 1013.0 |
| 20260505082646 | 14 | 94 | 4.8 | 4.8 | 0.00 | 0.15 | 0.15 | 96 | 1013.1 |
| 20260505082143 | 15 | 102 | 4.8 | 4.8 | 0.00 | 0.15 | 0.15 | 96 | 1013.6 |
| 20260505081638 | 15 | 173 | 1.6 | 1.6 | 0.00 | 0.15 | 0.15 | 96 | 1013.6 |
| 20260505081136 | 15 | 145 | 0.0 | 0.0 | 0.13 | 0.15 | 0.15 | 96 | 1013.4 |
| 20260505080633 | 15 | 168 | 0.0 | 0.0 | 0.13 | 0.15 | 0.15 | 95 | 1013.8 |
| 20260505080129 | 15 | 181 | 0.0 | 1.6 | 0.18 | 0.13 | 0.13 | 95 | 1013.6 |
| 20260505075625 | 15 | 83 | 4.8 | 4.8 | 0.18 | 0.13 | 0.13 | 95 | 1014.0 |
| 20260505075122 | 15 | 107 | 1.6 | 3.2 | 0.13 | 0.10 | 0.10 | 94 | 1013.9 |
| 20260505074619 | 15 | 130 | 3.2 | 4.8 | 0.30 | 0.10 | 0.10 | 94 | 1014.0 |
| 20260505074116 | 15 | 92 | 4.8 | 4.8 | 0.18 | 0.08 | 0.08 | 94 | 1014.1 |
| 20260505073614 | 15 | 181 | 1.6 | 1.6 | 0.18 | 0.08 | 0.08 | 94 | 1014.4 |
| 20260505073112 | 15 | 154 | 0.0 | 0.0 | 0.13 | 0.05 | 0.05 | 93 | 1014.2 |
| 20260505072607 | 15 | 151 | 0.0 | 0.0 | 0.13 | 0.05 | 0.05 | 93 | 1014.1 |
| 20260505072104 | 15 | 182 | 0.0 | 0.0 | 0.18 | 0.03 | 0.03 | 93 | 1013.9 |
| 20260505071559 | 15 | 171 | 0.0 | 0.0 | 0.18 | 0.03 | 0.03 | 93 | 1014.2 |
| 20260505071057 | 15 | 159 | 0.0 | 0.0 | 0.00 | 0.00 | 0.00 | 92 | 1014.2 |
| 20260505070554 | 15 | 154 | 0.0 | 0.0 | 0.13 | 0.00 | 0.00 | 92 | 1013.9 |
| 20260505070050 | 15 | 175 | 0.0 | 0.0 | 0.13 | 0.00 | 0.00 | 92 | 1014.0 |
| 20260505065546 | 15 | 174 | 0.0 | 0.0 | 0.18 | 0.48 | 0.48 | 92 | 1013.9 |
| 20260505065043 | 15 | 126 | 0.0 | 0.0 | 0.18 | 0.48 | 0.48 | 91 | 1013.8 |
| 20260505064540 | 15 | 163 | 0.0 | 0.0 | 0.00 | 0.46 | 0.46 | 91 | 1014.0 |
| 20260505064038 | 15 | 168 | 0.0 | 0.0 | 0.13 | 0.46 | 0.46 | 91 | 1013.7 |
| 20260505063535 | 15 | 164 | 0.0 | 0.0 | 0.13 | 0.46 | 0.46 | 91 | 1014.0 |
| 20260505063031 | 15 | 163 | 0.0 | 0.0 | 0.18 | 0.43 | 0.43 | 90 | 1013.8 |
| 20260505062528 | 15 | 93 | 1.6 | 3.2 | 0.30 | 0.43 | 0.43 | 90 | 1013.9 |
| 20260505062025 | 15 | 100 | 1.6 | 1.6 | 0.30 | 0.41 | 0.41 | 90 | 1014.0 |
| 20260505061523 | 15 | 146 | 0.0 | 1.6 | 0.36 | 0.38 | 0.38 | 89 | 1013.7 |
| 20260505061020 | 15 | 71 | 3.2 | 4.8 | 0.30 | 0.36 | 0.36 | 88 | 1013.7 |
| 20260505060518 | 15 | 156 | 1.6 | 1.6 | 0.30 | 0.33 | 0.33 | 87 | 1013.8 |
| 20260505060014 | 15 | 156 | 0.0 | 0.0 | 0.18 | 0.30 | 0.30 | 86 | 1014.0 |
| 20260505055510 | 15 | 167 | 1.6 | 1.6 | 0.00 | 0.28 | 0.28 | 86 | 1014.0 |
| 20260505055007 | 15 | 48 | 4.8 | 4.8 | 0.00 | 0.28 | 0.28 | 86 | 1013.8 |
| 20260505054504 | 15 | 173 | 0.0 | 1.6 | 0.13 | 0.28 | 0.28 | 86 | 1013.9 |
| 20260505054002 | 15 | 64 | 3.2 | 4.8 | 0.13 | 0.28 | 0.28 | 86 | 1013.7 |
| 20260505053459 | 15 | 123 | 3.2 | 3.2 | 0.00 | 0.25 | 0.25 | 85 | 1013.6 |
| 20260505052955 | 15 | 144 | 1.6 | 3.2 | 0.18 | 0.25 | 0.25 | 85 | 1013.4 |
| 20260505052453 | 16 | 173 | 0.0 | 0.0 | 0.30 | 0.25 | 0.25 | 84 | 1013.7 |
| 20260505051950 | 15 | 132 | 1.6 | 1.6 | 0.13 | 0.23 | 0.23 | 82 | 1013.9 |
| 20260505051446 | 16 | 138 | 3.2 | 3.2 | 0.00 | 0.20 | 0.20 | 82 | 1013.8 |
| 20260505050945 | 16 | 157 | 1.6 | 3.2 | 0.00 | 0.20 | 0.20 | 81 | 1013.6 |
| 20260505050443 | 16 | 191 | 0.0 | 0.0 | 0.00 | 0.20 | 0.20 | 80 | 1013.8 |